[[{"header":{"parameterUnit":"m.s-1","parameterCategory":1,"la1":30.2991,"la2":30.254,"lo1":-89.0895,"lo2":-89.0444,"dy":0.0017,"dx":0.0017,"nx":28,"ny":28,"refTime":"2024-07-03T03:00:00:Z","depth":0,"parameterNumber":2,"parameterNumberName":"U-component_of_WINDS"},"data":[0,0,0,0,0,0,0,0,0,0,0,0,0,0,0,0,0,0,0,0,0,0,0,0,0,0,0,0,0,0,0,0,0,0,0,0,0,0,0,0,0,0,0,0,0,0,0,0,0,0,0,0,0,0,0,0,0,0,0.6674,0.6676,0,0.6823,0.6824,0.6826,0.6911,0.6911,0.6911,0.6912,0.7066,0.7069,0.7073,0,0,0,0,0,0,0,0,0,0,0,0,0,0.6467,0.6471,0.6674,0.6676,0.6678,0.6822,0.6824,0.6826,0.6911,0.6911,0.6911,0.6912,0.7064,0.7069,0.7073,0,0,0,0,0,0,0,0,0,0,0,0,0,0.658,0.6472,0.6674,0.6737,0.6745,0.6822,0.6824,0.6827,0.6911,0.6911,0.6911,0.6912,0.7063,0.7068,0.7074,0.71,0,0,0.7092,0.7094,0,0,0,0,0,0,0,0,0.6574,0.6588,0.6726,0.6733,0.6741,0.6849,0.6808,0.6919,0.691,0.6848,0.6912,0.6912,0.6993,0.7005,0.7032,0.7108,0.7114,0.7092,0.7096,0.7098,0.71,0,0,0,0,0,0,0,0.6566,0.6582,0.6733,0.6728,0.6737,0.6759,0.6776,0.6829,0.6916,0.6853,0.686,0.6876,0.6997,0.7026,0.7036,0.7117,0.7092,0.7097,0.7101,0.7103,0.7223,0.7223,0,0,0,0,0,0,0.6548,0.6575,0.6728,0.6737,0.6657,0.6763,0.6781,0.6814,0.6916,0.6932,0.6875,0.6879,0.7016,0.7029,0.7042,0.708,0.7098,0.7103,0.7107,0.7223,0.7223,0.7223,0,0,0,0,0,0,0.6543,0.656,0.6722,0.6658,0.668,0.6766,0.6802,0.6816,0.6845,0.6933,0.6949,0.6888,0.7017,0.7033,0.7085,0.7086,0.7106,0.7111,0.7224,0.7223,0.7223,0.7155,0,0,0,0,0,0,0.6536,0.6558,0.6568,0.6658,0.6683,0.6762,0.6802,0.6819,0.6854,0.6861,0.6949,0.6964,0.7018,0.7076,0.7091,0.7094,0.7116,0.7224,0.7223,0.7223,0.7158,0.7153,0.7148,0,0,0,0,0,0.6529,0.6544,0.6568,0.6586,0.6698,0.6762,0.6777,0.6839,0.6854,0.6865,0.6922,0.6961,0.7084,0.7081,0.7098,0.7103,0.7224,0.7224,0.7223,0.716,0.7154,0.7148,0,0,0,0,0,0,0.6452,0.6556,0.6585,0.6629,0.6686,0.6776,0.6792,0.683,0.6884,0.6888,0.6963,0.6983,0.7027,0.7071,0.7066,0.7135,0.7158,0.7161,0.7104,0.7099,0.7094,0.7083,0.712,0,0,0,0,0,0.644,0.6483,0.6573,0.6603,0.663,0.6706,0.6736,0.6779,0.6842,0.6866,0.6927,0.6986,0.7039,0.7072,0.7125,0.7165,0.7186,0.7177,0.7172,0.7168,0.7169,0.7195,0.7192,0.7221,0.7221,0.7221,0,0,0.6417,0.6479,0.6501,0.6589,0.6638,0.6682,0.6726,0.677,0.6803,0.6873,0.6926,0.6972,0.7044,0.709,0.7114,0.7128,0.7166,0.7167,0.7163,0.7167,0.7194,0.7191,0.7188,0.7221,0.7221,0.7221,0,0,0.6395,0.6446,0.6478,0.6526,0.66,0.6651,0.6658,0.6744,0.6777,0.6831,0.6884,0.6926,0.7014,0.7063,0.71,0.7098,0.7137,0.7114,0.7088,0.7112,0.711,0.7108,0.7108,0.7107,0.7115,0.7115,0.7115,0,0.6356,0.6423,0.6489,0.653,0.6568,0.6633,0.6665,0.671,0.6797,0.6822,0.6837,0.6949,0.7002,0.7061,0.7061,0.7088,0.71,0.7103,0.7105,0.7104,0.7103,0.7104,0.7103,0.7111,0.7112,0.7112,0.7112,0,0.6372,0.6418,0.6435,0.6517,0.6556,0.6593,0.6665,0.6697,0.6737,0.6786,0.6841,0.6907,0.6974,0.6992,0.7031,0.7057,0.7063,0.709,0.7115,0.7096,0.7098,0.7099,0.7107,0.7108,0.7109,0.711,0,0,0.6305,0.6424,0.6429,0.6468,0.6555,0.6592,0.6633,0.6699,0.6725,0.6784,0.682,0.6893,0.6919,0.696,0.7006,0.7027,0.7022,0.7052,0.7055,0.7044,0.7055,0.7034,0.7033,0.7048,0.7049,0.7049,0.7049,0,0.6296,0.6371,0.6432,0.6484,0.6528,0.6591,0.6627,0.6684,0.6732,0.6777,0.683,0.6881,0.6911,0.6937,0.696,0.7017,0.7025,0.7018,0.7083,0.7085,0.7062,0.7034,0.7011,0.7008,0.705,0.705,0.705,0,0.6296,0.6351,0.6408,0.6491,0.6512,0.6543,0.6608,0.665,0.6718,0.6751,0.6797,0.6845,0.6892,0.6913,0.6978,0.6972,0.7003,0.7035,0.7036,0.7044,0.7066,0.7041,0.7008,0.7008,0.7052,0.7052,0.7052,0,0.6241,0.6331,0.6376,0.6408,0.6506,0.6526,0.6568,0.6636,0.6672,0.673,0.6754,0.6817,0.6851,0.6899,0.6963,0.6972,0.7022,0.7048,0.7051,0.7049,0.7058,0.7057,0.703,0.7078,0.7078,0.7078,0.7078,0,0.6224,0.6256,0.6353,0.6381,0.6419,0.649,0.6526,0.6574,0.6634,0.6673,0.6732,0.6768,0.685,0.6895,0.6946,0.6993,0.7008,0.7037,0.7049,0.7031,0.7027,0.7051,0.7053,0.7078,0.7078,0.7078,0.7078,0,0.6169,0.6235,0.6289,0.6379,0.6402,0.6426,0.6503,0.6533,0.6585,0.6633,0.6649,0.673,0.6787,0.6856,0.6935,0.6969,0.7011,0.7031,0.6988,0.6995,0.6995,0.6993,0.6982,0.6984,0.7031,0.703,0.703,0,0.6153,0.618,0.6272,0.6302,0.6343,0.6391,0.6428,0.6499,0.6535,0.6615,0.6635,0.6697,0.675,0.6838,0.6904,0.6966,0.6987,0.6979,0.6997,0.6977,0.6987,0.6984,0.6987,0.6974,0.6973,0.6972,0.6972,0,0.6119,0.6151,0.6202,0.6264,0.6307,0.636,0.6415,0.6437,0.652,0.6558,0.6616,0.6657,0.6739,0.6799,0.6869,0.6914,0.6956,0.6966,0.697,0.6951,0.6925,0.6939,0.6975,0.6965,0.6966,0.6967,0.6967,0.6967,0.6083,0.611,0.6179,0.6234,0.6284,0.6334,0.6367,0.6423,0.6473,0.6544,0.6584,0.6642,0.671,0.6808,0.6852,0.6899,0.6914,0.6919,0.6921,0.6921,0.6915,0.6918,0.6912,0.6912,0.6912,0.6913,0.6913,0,0.6052,0.61,0.615,0.6226,0.6269,0.6306,0.637,0.6404,0.6454,0.6514,0.6565,0.6633,0.6692,0.6764,0.6828,0.6852,0.6873,0.6866,0.6865,0.6875,0.6898,0.6888,0.6848,0.6848,0.6848,0.6848,0.6848,0.6848,0.604,0.6087,0.6127,0.62,0.6248,0.6305,0.6338,0.6386,0.6434,0.6507,0.6557,0.6603,0.6668,0.6738,0.6794,0.6814,0.6835,0.6822,0.6847,0.6868,0.6873,0.6878,0.6869,0.6826,0.6826,0.682,0.682,0.682]},{"header":{"parameterUnit":"m.s-1","parameterCategory":1,"la1":30.2991,"la2":30.254,"lo1":-89.0895,"lo2":-89.0444,"dy":0.0017,"dx":0.0017,"nx":28,"ny":28,"refTime":"2024-07-03T03:00:00:Z","depth":0,"parameterNumber":3,"parameterNumberName":"V-component_of_WINDS"},"data":[0,0,0,0,0,0,0,0,0,0,0,0,0,0,0,0,0,0,0,0,0,0,0,0,0,0,0,0,0,0,0,0,0,0,0,0,0,0,0,0,0,0,0,0,0,0,0,0,0,0,0,0,0,0,0,0,0,0,4.5415,4.5415,0,4.5405,4.5405,4.5405,4.5399,4.5399,4.5399,4.5399,4.5388,4.5388,4.5387,0,0,0,0,0,0,0,0,0,0,0,0,0,4.5428,4.5427,4.5415,4.5415,4.5415,4.5405,4.5405,4.5405,4.5399,4.5399,4.5399,4.5399,4.5388,4.5388,4.5387,0,0,0,0,0,0,0,0,0,0,0,0,0,4.542,4.5427,4.5415,4.5411,4.541,4.5405,4.5405,4.5405,4.5399,4.5399,4.5399,4.5399,4.5388,4.5388,4.5387,4.5385,0,0,4.5386,4.5386,0,0,0,0,0,0,0,0,4.5421,4.542,4.5412,4.5411,4.5411,4.5403,4.5405,4.5398,4.5399,4.5403,4.5399,4.5399,4.5393,4.5392,4.539,4.5385,4.5384,4.5386,4.5386,4.5386,4.5385,0,0,0,0,0,0,0,4.5421,4.542,4.5411,4.5411,4.5411,4.5409,4.5408,4.5404,4.5398,4.5403,4.5403,4.5402,4.5393,4.5391,4.539,4.5384,4.5386,4.5386,4.5385,4.5385,4.5376,4.5376,0,0,0,0,0,0,4.5423,4.5421,4.5411,4.5411,4.5416,4.5409,4.5408,4.5406,4.5399,4.5397,4.5402,4.5401,4.5392,4.5391,4.539,4.5387,4.5386,4.5385,4.5385,4.5376,4.5376,4.5376,0,0,0,0,0,0,4.5423,4.5422,4.5412,4.5416,4.5414,4.5409,4.5407,4.5406,4.5404,4.5397,4.5396,4.5401,4.5392,4.539,4.5386,4.5386,4.5385,4.5385,4.5376,4.5376,4.5376,4.5381,0,0,0,0,0,0,4.5423,4.5422,4.5422,4.5416,4.5414,4.5409,4.5407,4.5405,4.5403,4.5403,4.5396,4.5395,4.5391,4.5387,4.5386,4.5386,4.5384,4.5376,4.5376,4.5376,4.538,4.5381,4.5381,0,0,0,0,0,4.5424,4.5423,4.5422,4.5421,4.5413,4.5409,4.5408,4.5404,4.5403,4.5402,4.5398,4.5395,4.5386,4.5387,4.5385,4.5385,4.5376,4.5376,4.5376,4.538,4.5381,4.5381,0,0,0,0,0,0,4.5429,4.5422,4.5421,4.5418,4.5414,4.5408,4.5407,4.5405,4.5401,4.5401,4.5395,4.5394,4.539,4.5387,4.5388,4.5382,4.5381,4.538,4.5385,4.5385,4.5385,4.5386,4.5384,0,0,0,0,0,4.543,4.5427,4.5421,4.542,4.5418,4.5413,4.5411,4.5408,4.5404,4.5402,4.5398,4.5393,4.5389,4.5387,4.5383,4.538,4.5378,4.5379,4.5379,4.5379,4.5379,4.5377,4.5377,4.5376,4.5376,4.5376,0,0,4.5431,4.5427,4.5426,4.5421,4.5417,4.5415,4.5412,4.5409,4.5406,4.5402,4.5398,4.5394,4.5389,4.5385,4.5384,4.5383,4.5379,4.5379,4.538,4.5379,4.5377,4.5377,4.5377,4.5376,4.5376,4.5376,0,0,4.5433,4.543,4.5428,4.5425,4.542,4.5417,4.5416,4.5411,4.5408,4.5404,4.54,4.5397,4.5391,4.5387,4.5384,4.5384,4.5381,4.5383,4.5385,4.5382,4.5382,4.5382,4.5382,4.5382,4.5383,4.5383,4.5383,0,4.5435,4.5431,4.5427,4.5425,4.5422,4.5418,4.5416,4.5413,4.5407,4.5405,4.5404,4.5395,4.5391,4.5387,4.5387,4.5385,4.5384,4.5384,4.5383,4.5383,4.5383,4.5382,4.5382,4.5383,4.5383,4.5383,4.5383,0,4.5435,4.5432,4.5431,4.5426,4.5423,4.5421,4.5416,4.5413,4.5411,4.5407,4.5403,4.5398,4.5393,4.5392,4.5389,4.5386,4.5386,4.5384,4.5382,4.5383,4.5383,4.5383,4.5383,4.5383,4.5383,4.5383,0,0,4.5439,4.5432,4.5431,4.5429,4.5423,4.5421,4.5418,4.5413,4.5411,4.5407,4.5404,4.5398,4.5397,4.5393,4.539,4.5388,4.5388,4.5386,4.5386,4.5387,4.5385,4.5386,4.5386,4.5386,4.5386,4.5386,4.5385,0,4.544,4.5435,4.5431,4.5428,4.5425,4.5421,4.5418,4.5414,4.541,4.5407,4.5403,4.5399,4.5397,4.5395,4.5393,4.5388,4.5387,4.5388,4.5383,4.5383,4.5384,4.5386,4.5388,4.5387,4.5385,4.5385,4.5385,0,4.544,4.5437,4.5433,4.5427,4.5426,4.5424,4.5419,4.5416,4.5411,4.5409,4.5405,4.5401,4.5398,4.5396,4.5391,4.5391,4.5389,4.5386,4.5386,4.5385,4.5384,4.5385,4.5387,4.5387,4.5384,4.5384,4.5384,0,4.5444,4.5438,4.5435,4.5433,4.5426,4.5425,4.5422,4.5417,4.5414,4.541,4.5408,4.5403,4.54,4.5396,4.5391,4.5391,4.5386,4.5384,4.5383,4.5384,4.5383,4.5383,4.5384,4.5381,4.5381,4.5381,4.5381,0,4.5445,4.5443,4.5437,4.5435,4.5432,4.5427,4.5425,4.5421,4.5417,4.5414,4.5409,4.5406,4.54,4.5396,4.5392,4.5388,4.5387,4.5384,4.5383,4.5385,4.5385,4.5383,4.5383,4.5381,4.5381,4.5381,4.5381,0,4.5449,4.5445,4.5441,4.5435,4.5433,4.5432,4.5426,4.5424,4.542,4.5416,4.5415,4.5409,4.5404,4.5399,4.5392,4.5389,4.5385,4.5384,4.5387,4.5387,4.5386,4.5386,4.5386,4.5386,4.5383,4.5383,4.5383,0,4.545,4.5448,4.5442,4.544,4.5437,4.5434,4.5431,4.5426,4.5424,4.5417,4.5416,4.5411,4.5407,4.5399,4.5394,4.5388,4.5387,4.5387,4.5386,4.5387,4.5386,4.5387,4.5386,4.5387,4.5387,4.5387,4.5387,0,4.5453,4.545,4.5447,4.5443,4.544,4.5436,4.5432,4.543,4.5424,4.5421,4.5417,4.5413,4.5407,4.5402,4.5396,4.5392,4.5388,4.5388,4.5387,4.5389,4.5391,4.539,4.5388,4.5388,4.5388,4.5388,4.5388,4.5388,4.5455,4.5453,4.5449,4.5445,4.5441,4.5438,4.5435,4.5431,4.5427,4.5422,4.5419,4.5414,4.5408,4.54,4.5396,4.5392,4.5391,4.539,4.539,4.539,4.539,4.5391,4.5391,4.5391,4.5391,4.5391,4.5391,0,4.5457,4.5454,4.545,4.5445,4.5442,4.5439,4.5435,4.5432,4.5428,4.5424,4.5419,4.5414,4.5409,4.5403,4.5397,4.5395,4.5393,4.5394,4.5394,4.5393,4.5392,4.5393,4.5395,4.5395,4.5395,4.5395,4.5395,4.5395,4.5458,4.5455,4.5452,4.5447,4.5443,4.5439,4.5437,4.5433,4.5429,4.5423,4.5419,4.5415,4.541,4.5404,4.5399,4.5397,4.5395,4.5396,4.5394,4.5393,4.5393,4.5393,4.5393,4.5396,4.5396,4.5395,4.5395,4.5395]}]]